This demonstration page uses our WeatherBlox Daily Observations layout. Learn more.

Left ArrowRight Arrow

39.12711, -84.51439

Hourly Observations for July 29, 2018

Temp ( °F °C ) Dew Point ( °F °C ) Humidity (%) Winds ( mph kmh ) Pressure ( in mb ) Visibility ( mi km ) Precip ( " mm )
12:53 am 00:53 Clear 64 17.8 63 17.2 96 96 Calm 30.13 1020 10 16 0.00 0.00
1:53 am 01:53 Clear 63 17.2 62 16.7 97 97 Calm 30.12 1020 10 16 0.00 0.00
2:53 am 02:53 Clear 61 16.1 61 16.1 100 100 Calm 30.13 1020 9 14 0.00 0.00
3:53 am 03:53 Clear 61 16.1 61 16.1 100 100 Calm 30.13 1020 7 11 0.00 0.00
4:53 am 04:53 Clear 61 16.1 61 16.1 100 100 Calm 30.12 1020 7 11 0.00 0.00
5:53 am 05:53 Clear with Mist and Fog 60 15.6 60 15.6 100 100 Calm 30.13 1020 4 6 0.00 0.00
6:53 am 06:53 Sunny 60 15.6 60 15.6 100 100 Calm 30.14 1021 10 16 0.00 0.00
7:53 am 07:53 Sunny 63 17.2 63 17.2 100 100 Calm 30.12 1020 10 16 0.00 0.00
8:53 am 08:53 Sunny 67 19.4 65 18.3 93 93 Calm 30.11 1020 9 14 0.00 0.00
9:53 am 09:53 Sunny 73 22.8 65 18.3 76 76 SSW 6 9 30.13 1020 10 16 0.00 0.00
10:53 am 10:53 Sunny 76 24.4 64 17.8 67 67 VRB 3 6 30.12 1020 10 16 0.00 0.00
11:53 am 11:53 Sunny 79 26.1 65 18.3 62 62 SSW 3 6 30.11 1020 10 16 0.00 0.00
12:53 pm 12:53 Mostly Cloudy 79 26.1 63 17.2 58 58 Calm 30.11 1020 10 16 0.00 0.00
1:53 pm 13:53 Mostly Cloudy 80 26.7 62 16.7 54 54 SSW 5 7 30.10 1019 10 16 0.00 0.00
2:53 pm 14:53 Mostly Cloudy 80 26.7 62 16.7 54 54 Calm 30.09 1019 10 16 0.00 0.00
3:53 pm 15:53 Mostly Cloudy 80 26.7 64 17.8 58 58 Calm 30.07 1018 10 16 0.00 0.00
4:53 pm 16:53 Mostly Cloudy 81 27.2 61 16.1 51 51 NNE 3 6 30.07 1018 10 16 0.00 0.00
5:53 pm 17:53 Partly Cloudy 81 27.2 63 17.2 54 54 ENE 5 7 30.05 1018 10 16 0.00 0.00
6:53 pm 18:53 Partly Cloudy 80 26.7 64 17.8 58 58 NNE 5 7 30.05 1018 10 16 0.00 0.00
7:53 pm 19:53 Mostly Cloudy 77 25 67 19.4 71 71 ENE 3 6 30.05 1018 10 16 0.00 0.00
8:53 pm 20:53 Mostly Cloudy 74 23.3 67 19.4 79 79 Calm 30.05 1018 10 16 0.00 0.00
9:53 pm 21:53 Mostly Cloudy 72 22.2 67 19.4 84 84 NE 3 6 30.06 1018 10 16 0.00 0.00
10:53 pm 22:53 Clear 71 21.7 67 19.4 87 87 Calm 30.08 1019 10 16 0.00 0.00
11:53 pm 23:53 Clear 71 21.7 66 18.9 84 84 NE 3 6 30.07 1018 10 16 0.00 0.00

Powered by AerisWeather